EN

Hourly Weather Altenglan

Today, 16 January, Saturday

Time Temperature Precipitation Wind Pressure Humidity
00:00 -3°C° 0 mm 1 mps 744 mmHg 93%
01:00 -3°C° 0 mm 1 mps 744 mmHg 94%
02:00 -3°C° 0 mm 1 mps 744 mmHg 94%
03:00 -4°C° 0 mm 0 mps 744 mmHg 94%
04:00 -4°C° 0 mm 0 mps 744 mmHg 94%
05:00 -4°C° 0 mm 0 mps 744 mmHg 94%
06:00 -5°C° 0 mm 0 mps 744 mmHg 94%
07:00 -4°C° 0 mm 0 mps 744 mmHg 92%
08:00 -3°C° 0 mm 1 mps 744 mmHg 90%
09:00 -2°C° 0 mm 1 mps 744 mmHg 88%
10:00 -2°C° 0 mm 1 mps 743 mmHg 85%
11:00 -3°C° 0 mm 2 mps 743 mmHg 83%
12:00 -3°C° 0 mm 2 mps 743 mmHg 81%
13:00 -3°C° 0 mm 2 mps 742 mmHg 83%
14:00 -3°C° 0 mm 2 mps 741 mmHg 84%
15:00 -4°C° 0 mm 3 mps 741 mmHg 86%
16:00 -5°C° 0 mm 3 mps 740 mmHg 88%
17:00 -5°C° 0 mm 3 mps 740 mmHg 90%
18:00 -5°C° 0 mm 3 mps 739 mmHg 92%
19:00 -5°C° 0.4 mm 3 mps 739 mmHg 93%
20:00 -4°C° 0.4 mm 4 mps 738 mmHg 94%
21:00 -4°C° 0.4 mm 4 mps 738 mmHg 95%
22:00 -4°C° 0.6 mm 4 mps 738 mmHg 95%
23:00 -3°C° 0.6 mm 4 mps 737 mmHg 96%

Tomorrow, 17 January, Sunday

Time Temperature Precipitation Wind Pressure Humidity
00:00 -2°C° 0.6 mm 3 mps 737 mmHg 96%
01:00 -2°C° 0.3 mm 3 mps 736 mmHg 97%
02:00 -2°C° 0.3 mm 3 mps 736 mmHg 97%
03:00 -2°C° 0.3 mm 2 mps 735 mmHg 97%
04:00 -1°C° 0.2 mm 2 mps 735 mmHg 97%
05:00 -1°C° 0.2 mm 2 mps 735 mmHg 98%
06:00 -1°C° 0.2 mm 2 mps 735 mmHg 98%
07:00 +1°C° 0.1 mm 2 mps 736 mmHg 98%
08:00 +1°C° 0.1 mm 2 mps 736 mmHg 98%
09:00 +1°C° 0.1 mm 3 mps 736 mmHg 98%
10:00 +1°C° 0.1 mm 3 mps 737 mmHg 98%
11:00 +1°C° 0.1 mm 3 mps 737 mmHg 98%
12:00 +1°C° 0.1 mm 3 mps 738 mmHg 97%
13:00 +1°C° 0.1 mm 3 mps 738 mmHg 97%
14:00 +1°C° 0.1 mm 3 mps 738 mmHg 97%
15:00 +1°C° 0.1 mm 3 mps 738 mmHg 97%
16:00 0°C° 0 mm 3 mps 739 mmHg 97%
17:00 0°C° 0 mm 3 mps 740 mmHg 97%
18:00 0°C° 0 mm 3 mps 740 mmHg 96%
19:00 0°C° 0 mm 3 mps 740 mmHg 97%
20:00 +1°C° 0 mm 2 mps 741 mmHg 97%
21:00 +1°C° 0 mm 2 mps 741 mmHg 97%
22:00 +1°C° 0.1 mm 2 mps 741 mmHg 97%
23:00 0°C° 0.1 mm 3 mps 742 mmHg 97%

Day after tomorrow, 18 January, Monday

Time Temperature Precipitation Wind Pressure Humidity
00:00 0°C° 0.1 mm 3 mps 742 mmHg 97%
01:00 0°C° 0 mm 3 mps 742 mmHg 97%
02:00 -1°C° 0 mm 3 mps 742 mmHg 96%
03:00 -2°C° 0 mm 3 mps 742 mmHg 96%
04:00 -2°C° 0 mm 3 mps 742 mmHg 96%
05:00 -2°C° 0 mm 2 mps 742 mmHg 96%
06:00 -2°C° 0 mm 2 mps 742 mmHg 96%
07:00 -1°C° 0 mm 2 mps 743 mmHg 96%
08:00 -1°C° 0 mm 3 mps 743 mmHg 96%
09:00 0°C° 0 mm 3 mps 743 mmHg 96%
10:00 0°C° 0 mm 3 mps 743 mmHg 96%
11:00 -1°C° 0 mm 4 mps 743 mmHg 96%
12:00 -1°C° 0 mm 4 mps 743 mmHg 95%
13:00 -1°C° 0 mm 4 mps 743 mmHg 95%
14:00 -1°C° 0 mm 4 mps 742 mmHg 95%
15:00 -1°C° 0 mm 4 mps 742 mmHg 94%
16:00 -1°C° 0 mm 4 mps 742 mmHg 95%
17:00 -1°C° 0 mm 4 mps 742 mmHg 95%
18:00 -1°C° 0 mm 4 mps 742 mmHg 96%
19:00 -1°C° 0 mm 4 mps 742 mmHg 95%
20:00 -1°C° 0 mm 4 mps 742 mmHg 94%
21:00 -1°C° 0 mm 4 mps 742 mmHg 93%
22:00 -1°C° 0 mm 4 mps 741 mmHg 93%
23:00 -2°C° 0 mm 4 mps 741 mmHg 93%

19 January, Tuesday

Time Temperature Precipitation Wind Pressure Humidity
00:00 -2°C° 0 mm 4 mps 741 mmHg 93%
01:00 -2°C° 0 mm 5 mps 740 mmHg 93%
02:00 -2°C° 0 mm 5 mps 739 mmHg 92%
03:00 -2°C° 0 mm 5 mps 738 mmHg 92%
04:00 -2°C° 0 mm 5 mps 738 mmHg 90%
05:00 -2°C° 0 mm 5 mps 737 mmHg 89%
06:00 -4°C° 0 mm 6 mps 737 mmHg 87%
07:00 -3°C° 0.1 mm 6 mps 737 mmHg 87%
08:00 -3°C° 0.1 mm 7 mps 736 mmHg 87%
09:00 -2°C° 0.1 mm 7 mps 736 mmHg 88%
10:00 -2°C° 0.1 mm 7 mps 736 mmHg 88%
11:00 -2°C° 0.1 mm 7 mps 735 mmHg 88%
12:00 -1°C° 0.1 mm 7 mps 735 mmHg 88%
13:00 -1°C° 0 mm 6 mps 735 mmHg 87%
14:00 -1°C° 0 mm 6 mps 734 mmHg 87%
15:00 -1°C° 0 mm 6 mps 734 mmHg 87%
16:00 0°C° 0 mm 5 mps 733 mmHg 86%
17:00 0°C° 0 mm 5 mps 733 mmHg 86%
18:00 -1°C° 0 mm 5 mps 733 mmHg 86%
19:00 -1°C° 0 mm 5 mps 732 mmHg 85%
20:00 -1°C° 0 mm 5 mps 732 mmHg 83%
21:00 -1°C° 0 mm 5 mps 732 mmHg 82%
22:00 0°C° 0 mm 5 mps 731 mmHg 83%
23:00 0°C° 0 mm 5 mps 731 mmHg 84%

20 January, Wednesday

Time Temperature Precipitation Wind Pressure Humidity
00:00 -1°C° 0 mm 6 mps 731 mmHg 85%
01:00 -1°C° 0 mm 6 mps 730 mmHg 86%
02:00 +1°C° 0 mm 6 mps 730 mmHg 86%
03:00 +1°C° 0 mm 6 mps 729 mmHg 87%
04:00 +1°C° 0 mm 6 mps 729 mmHg 87%
05:00 +1°C° 0 mm 6 mps 728 mmHg 88%
06:00 +1°C° 0 mm 6 mps 728 mmHg 88%
07:00 +2°C° 0 mm 6 mps 728 mmHg 88%
08:00 +3°C° 0 mm 6 mps 727 mmHg 87%
09:00 +3°C° 0 mm 7 mps 727 mmHg 86%
10:00 +4°C° 0 mm 7 mps 727 mmHg 85%
11:00 +5°C° 0 mm 7 mps 726 mmHg 84%
12:00 +5°C° 0 mm 7 mps 726 mmHg 83%
13:00 +5°C° 0 mm 6 mps 725 mmHg 83%
14:00 +5°C° 0 mm 6 mps 725 mmHg 84%
15:00 +6°C° 0 mm 5 mps 724 mmHg 85%
16:00 +5°C° 0 mm 5 mps 724 mmHg 85%
17:00 +5°C° 0 mm 5 mps 724 mmHg 86%
18:00 +3°C° 0 mm 5 mps 723 mmHg 86%
19:00 +3°C° 0 mm 5 mps 723 mmHg 85%
20:00 +3°C° 0 mm 6 mps 723 mmHg 84%
21:00 +4°C° 0 mm 6 mps 723 mmHg 83%
22:00 +4°C° 0.1 mm 6 mps 722 mmHg 83%
23:00 +4°C° 0.1 mm 7 mps 722 mmHg 83%

21 January, Thursday

Time Temperature Precipitation Wind Pressure Humidity
00:00 +4°C° 0.1 mm 7 mps 721 mmHg 82%
01:00 +4°C° 0.3 mm 7 mps 721 mmHg 82%
02:00 +5°C° 0.3 mm 8 mps 720 mmHg 82%
03:00 +5°C° 0.3 mm 9 mps 720 mmHg 81%
04:00 +3°C° 1.7 mm 9 mps 720 mmHg 85%
05:00 +2°C° 1.7 mm 8 mps 721 mmHg 88%
06:00 +2°C° 1.7 mm 8 mps 721 mmHg 92%
07:00 +2°C° 0.2 mm 7 mps 723 mmHg 90%
08:00 +1°C° 0.2 mm 6 mps 724 mmHg 88%
09:00 +1°C° 0.2 mm 5 mps 725 mmHg 86%
10:00 +1°C° 0 mm 5 mps 725 mmHg 85%
11:00 +2°C° 0 mm 6 mps 726 mmHg 83%
12:00 +2°C° 0 mm 6 mps 726 mmHg 81%
13:00 +2°C° 0 mm 6 mps 727 mmHg 81%
14:00 +2°C° 0 mm 6 mps 727 mmHg 81%
15:00 +3°C° 0 mm 5 mps 727 mmHg 81%
16:00 +2°C° 0 mm 5 mps 727 mmHg 83%
17:00 +3°C° 0 mm 4 mps 727 mmHg 85%
18:00 +3°C° 0 mm 4 mps 728 mmHg 87%
19:00 +1°C° 0 mm 4 mps 728 mmHg 89%
20:00 +2°C° 0 mm 3 mps 727 mmHg 91%
21:00 +1°C° 0 mm 3 mps 727 mmHg 93%
22:00 +1°C° 0 mm 3 mps 727 mmHg 93%
23:00 +1°C° 0 mm 3 mps 727 mmHg 93%
Show more